| time (UTC) | temp F | wind direction | speed knots | gust knots | rain 1hr in | rain 24hr in | rain mn in | humidity % | barometer mb |
| 20260508211522 | 81 | 230 | 10.4 | 17.4 | 0.00 | 0.00 | 0.00 | 13 | 1004.6 |
| 20260508210453 | 82 | 196 | 9.6 | 15.6 | 0.00 | 0.00 | 0.00 | 12 | 1004.5 |
| 20260508205447 | 81 | 222 | 9.6 | 15.6 | 0.00 | 0.00 | 0.00 | 13 | 1004.8 |
| 20260508204432 | 81 | 156 | 8.7 | 16.5 | 0.00 | 0.00 | 0.00 | 13 | 1004.9 |
| 20260508203400 | 80 | 186 | 8.7 | 16.5 | 0.00 | 0.00 | 0.00 | 13 | 1005.0 |
| 20260508202424 | 80 | 223 | 8.7 | 15.6 | 0.00 | 0.00 | 0.00 | 13 | 1005.1 |
| 20260508201416 | 81 | 269 | 10.4 | 21.7 | 0.00 | 0.00 | 0.00 | 13 | 1005.2 |
| 20260508195324 | 78 | 127 | 7.0 | 13.9 | 0.00 | 0.00 | 0.00 | 13 | 1005.4 |
| 20260508194338 | 79 | 182 | 6.1 | 13.9 | 0.00 | 0.00 | 0.00 | 14 | 1005.5 |
| 20260508193339 | 78 | 169 | 7.0 | 13.0 | 0.00 | 0.00 | 0.00 | 14 | 1005.6 |
| 20260508192338 | 79 | 252 | 6.1 | 16.5 | 0.00 | 0.00 | 0.00 | 13 | 1005.7 |
| 20260508185114 | 78 | 167 | 6.1 | 13.0 | 0.00 | 0.00 | 0.00 | 14 | 1005.9 |
| 20260508184044 | 79 | 252 | 6.1 | 13.0 | 0.00 | 0.00 | 0.00 | 14 | 1006.2 |
| 20260508183022 | 77 | 154 | 5.2 | 10.4 | 0.00 | 0.00 | 0.00 | 15 | 1006.2 |
| 20260508182030 | 77 | 242 | 3.5 | 10.4 | 0.00 | 0.00 | 0.00 | 15 | 1006.6 |
| 20260508175900 | 77 | 302 | 7.8 | 20.0 | 0.00 | 0.00 | 0.00 | 14 | 1007.0 |
| 20260508174913 | 76 | 259 | 7.0 | 14.8 | 0.00 | 0.00 | 0.00 | 15 | 1007.0 |
| 20260508173918 | 77 | 292 | 5.2 | 14.8 | 0.00 | 0.00 | 0.00 | 15 | 1007.2 |
| 20260508172906 | 76 | 227 | 7.8 | 15.6 | 0.00 | 0.00 | 0.00 | 15 | 1007.3 |
| 20260508170736 | 76 | 306 | 6.1 | 13.9 | 0.00 | 0.00 | 0.00 | 15 | 1007.6 |
| 20260508165719 | 76 | 322 | 6.1 | 12.2 | 0.00 | 0.00 | 0.00 | 15 | 1007.7 |
| 20260508164656 | 75 | 359 | 5.2 | 12.2 | 0.00 | 0.00 | 0.00 | 16 | 1007.8 |
| 20260508163654 | 74 | 151 | 3.5 | 12.2 | 0.00 | 0.00 | 0.00 | 16 | 1007.8 |
| 20260508162641 | 74 | 288 | 3.5 | 13.0 | 0.00 | 0.00 | 0.00 | 15 | 1007.8 |
| 20260508160548 | 73 | 327 | 3.5 | 10.4 | 0.00 | 0.00 | 0.00 | 16 | 1008.0 |
| 20260508155559 | 72 | 91 | 5.2 | 10.4 | 0.00 | 0.00 | 0.00 | 16 | 1008.0 |
| 20260508154547 | 71 | 257 | 7.0 | 13.0 | 0.00 | 0.00 | 0.00 | 15 | 1008.0 |
| 20260508153532 | 71 | 295 | 6.1 | 13.9 | 0.00 | 0.00 | 0.00 | 16 | 1007.9 |
| 20260508152529 | 70 | 217 | 7.0 | 15.6 | 0.00 | 0.00 | 0.00 | 15 | 1007.9 |
| 20260508151548 | 69 | 267 | 10.4 | 15.6 | 0.00 | 0.00 | 0.00 | 15 | 1007.9 |
| 20260508150548 | 69 | 264 | 5.2 | 14.8 | 0.00 | 0.00 | 0.00 | 14 | 1007.9 |
| 20260508144415 | 67 | 242 | 4.3 | 12.2 | 0.00 | 0.00 | 0.00 | 15 | 1008.1 |
| 20260508143427 | 67 | 192 | 5.2 | 10.4 | 0.00 | 0.00 | 0.00 | 15 | 1008.1 |
| 20260508141248 | 59 | 175 | 3.5 | 7.0 | 0.00 | 0.00 | 0.00 | 26 | 1008.0 |
| 20260508135135 | 56 | 218 | 4.3 | 8.7 | 0.00 | 0.00 | 0.00 | 28 | 1007.9 |
| 20260508134120 | 56 | 191 | 3.5 | 7.8 | 0.00 | 0.00 | 0.00 | 28 | 1007.8 |
| 20260508133136 | 56 | 4 | 3.5 | 8.7 | 0.00 | 0.00 | 0.00 | 27 | 1007.7 |
| 20260508125831 | 56 | 195 | 3.5 | 7.8 | 0.00 | 0.00 | 0.00 | 22 | 1007.4 |
| 20260508124835 | 56 | 242 | 4.3 | 7.8 | 0.00 | 0.00 | 0.00 | 22 | 1007.2 |
| 20260508123828 | 55 | 227 | 4.3 | 7.8 | 0.00 | 0.00 | 0.00 | 24 | 1007.1 |
| 20260508122846 | 56 | 223 | 4.3 | 7.8 | 0.00 | 0.00 | 0.00 | 24 | 1006.9 |
| 20260508121853 | 55 | 193 | 4.3 | 8.7 | 0.00 | 0.00 | 0.00 | 24 | 1006.9 |
| 20260508115748 | 56 | 173 | 5.2 | 9.6 | 0.00 | 0.00 | 0.00 | 25 | 1006.7 |
| 20260508114802 | 56 | 230 | 5.2 | 8.7 | 0.00 | 0.00 | 0.00 | 26 | 1006.7 |
| 20260508113745 | 56 | 198 | 4.3 | 8.7 | 0.00 | 0.00 | 0.00 | 26 | 1006.7 |
| 20260508112807 | 56 | 211 | 5.2 | 8.7 | 0.00 | 0.00 | 0.00 | 26 | 1006.6 |
| 20260508111820 | 55 | 212 | 4.3 | 7.8 | 0.00 | 0.00 | 0.00 | 26 | 1006.6 |
| 20260508110754 | 55 | 219 | 4.3 | 7.8 | 0.00 | 0.00 | 0.00 | 27 | 1006.7 |
| 20260508104636 | 55 | 227 | 3.5 | 7.8 | 0.00 | 0.00 | 0.00 | 27 | 1006.6 |
| 20260508103634 | 56 | 228 | 4.3 | 7.8 | 0.00 | 0.00 | 0.00 | 26 | 1006.6 |
| 20260508102635 | 56 | 231 | 4.3 | 7.8 | 0.00 | 0.00 | 0.00 | 26 | 1006.7 |
| 20260508101621 | 57 | 231 | 4.3 | 7.8 | 0.00 | 0.00 | 0.00 | 25 | 1006.6 |
| 20260508100604 | 57 | 226 | 4.3 | 7.0 | 0.00 | 0.00 | 0.00 | 25 | 1006.5 |
| 20260508095540 | 57 | 227 | 4.3 | 7.0 | 0.00 | 0.00 | 0.00 | 25 | 1006.4 |
| 20260508094558 | 58 | 233 | 3.5 | 5.2 | 0.00 | 0.00 | 0.00 | 23 | 1006.6 |
| 20260508093556 | 58 | 256 | 3.5 | 5.2 | 0.00 | 0.00 | 0.00 | 23 | 1006.6 |
| 20260508092555 | 57 | 254 | 3.5 | 5.2 | 0.00 | 0.00 | 0.00 | 24 | 1006.8 |
| 20260508091520 | 58 | 246 | 4.3 | 7.0 | 0.00 | 0.00 | 0.00 | 23 | 1006.8 |
| 20260508090458 | 58 | 255 | 4.3 | 7.0 | 0.00 | 0.00 | 0.00 | 23 | 1006.9 |
| 20260508085442 | 58 | 240 | 4.3 | 7.8 | 0.00 | 0.00 | 0.00 | 24 | 1007.1 |
| 20260508083256 | 57 | 248 | 4.3 | 7.0 | 0.00 | 0.00 | 0.00 | 24 | 1007.4 |
| 20260508082247 | 57 | 238 | 4.3 | 7.8 | 0.00 | 0.00 | 0.00 | 24 | 1007.6 |
| 20260508081311 | 57 | 222 | 4.3 | 7.8 | 0.00 | 0.00 | 0.00 | 24 | 1007.6 |
| 20260508080317 | 57 | 223 | 3.5 | 6.1 | 0.00 | 0.00 | 0.00 | 24 | 1008.0 |
| 20260508075254 | 58 | 216 | 2.6 | 6.1 | 0.00 | 0.00 | 0.00 | 23 | 1008.1 |
| 20260508074248 | 58 | 225 | 3.5 | 6.1 | 0.00 | 0.00 | 0.00 | 22 | 1008.1 |
| 20260508073242 | 58 | 221 | 3.5 | 5.2 | 0.00 | 0.00 | 0.00 | 22 | 1008.1 |
| 20260508072245 | 58 | 237 | 2.6 | 5.2 | 0.00 | 0.00 | 0.00 | 22 | 1008.2 |
| 20260508071306 | 58 | 221 | 1.7 | 5.2 | 0.00 | 0.00 | 0.00 | 22 | 1008.3 |
| 20260508065207 | 60 | 226 | 3.5 | 7.0 | 0.00 | 0.00 | 0.00 | 20 | 1008.4 |
| 20260508064133 | 61 | 234 | 4.3 | 7.8 | 0.00 | 0.00 | 0.00 | 20 | 1008.4 |
| 20260508061918 | 60 | 251 | 4.3 | 7.0 | 0.00 | 0.00 | 0.00 | 21 | 1008.3 |
| 20260508060900 | 60 | 231 | 2.6 | 4.3 | 0.00 | 0.00 | 0.00 | 21 | 1008.2 |
| 20260508055916 | 60 | 240 | 2.6 | 4.3 | 0.00 | 0.00 | 0.00 | 21 | 1008.3 |
| 20260508054843 | 60 | 244 | 2.6 | 7.0 | 0.00 | 0.00 | 0.00 | 21 | 1008.3 |
| 20260508053835 | 61 | 230 | 3.5 | 7.0 | 0.00 | 0.00 | 0.00 | 21 | 1008.3 |
| 20260508052845 | 61 | 224 | 3.5 | 6.1 | 0.00 | 0.00 | 0.00 | 21 | 1008.2 |
| 20260508051819 | 59 | 231 | 3.5 | 4.3 | 0.00 | 0.00 | 0.00 | 22 | 1008.3 |
| 20260508050759 | 60 | 242 | 2.6 | 2.6 | 0.00 | 0.00 | 0.00 | 22 | 1008.2 |
| 20260508045749 | 60 | 234 | 2.6 | 4.3 | 0.00 | 0.00 | 0.00 | 22 | 1008.3 |
| 20260508044809 | 61 | 232 | 2.6 | 4.3 | 0.00 | 0.00 | 0.00 | 21 | 1008.2 |
| 20260508043802 | 61 | 229 | 2.6 | 5.2 | 0.00 | 0.00 | 0.00 | 21 | 1008.3 |
| 20260508042732 | 61 | 229 | 3.5 | 5.2 | 0.00 | 0.00 | 0.00 | 21 | 1008.2 |
| 20260508041717 | 61 | 233 | 3.5 | 5.2 | 0.00 | 0.00 | 0.00 | 21 | 1008.1 |
| 20260508040647 | 61 | 232 | 3.5 | 5.2 | 0.00 | 0.00 | 0.00 | 22 | 1008.1 |
| 20260508035616 | 60 | 234 | 3.5 | 4.3 | 0.00 | 0.00 | 0.00 | 22 | 1008.0 |
| 20260508034607 | 60 | 236 | 1.7 | 3.5 | 0.00 | 0.00 | 0.00 | 22 | 1007.8 |
| 20260508033601 | 60 | 227 | 1.7 | 3.5 | 0.00 | 0.00 | 0.00 | 22 | 1007.6 |
| 20260508032602 | 60 | 234 | 2.6 | 3.5 | 0.00 | 0.00 | 0.00 | 22 | 1007.5 |
| 20260508031558 | 61 | 252 | 1.7 | 2.6 | 0.00 | 0.00 | 0.00 | 22 | 1007.3 |
| 20260508030610 | 61 | 211 | 0.9 | 2.6 | 0.00 | 0.00 | 0.00 | 21 | 1007.1 |
| 20260508023304 | 63 | 179 | 0.9 | 2.6 | 0.00 | 0.00 | 0.00 | 21 | 1006.7 |
| 20260508022249 | 64 | 134 | 0.0 | 2.6 | 0.00 | 0.00 | 0.00 | 20 | 1006.7 |
| 20260508021303 | 65 | 117 | 0.9 | 2.6 | 0.00 | 0.00 | 0.00 | 20 | 1006.6 |
| 20260508020239 | 66 | 150 | 0.0 | 2.6 | 0.00 | 0.00 | 0.00 | 19 | 1006.4 |
| 20260508015306 | 67 | 114 | 0.9 | 2.6 | 0.00 | 0.00 | 0.00 | 18 | 1006.3 |
| 20260508014250 | 68 | 104 | 1.7 | 5.2 | 0.00 | 0.00 | 0.00 | 18 | 1006.2 |
| 20260508012110 | 70 | 56 | 2.6 | 7.0 | 0.00 | 0.00 | 0.00 | 17 | 1006.1 |
| 20260508011115 | 71 | 69 | 1.7 | 4.3 | 0.00 | 0.00 | 0.00 | 17 | 1006.2 |
| 20260508010112 | 72 | 52 | 2.6 | 7.8 | 0.00 | 0.00 | 0.00 | 17 | 1006.2 |
| 20260508005057 | 72 | 96 | 3.5 | 7.8 | 0.00 | 0.00 | 0.00 | 16 | 1006.2 |
| 20260508001834 | 74 | 174 | 2.6 | 9.6 | 0.00 | 0.00 | 0.00 | 15 | 1006.2 |
| 20260508000833 | 73 | 150 | 3.5 | 9.6 | 0.00 | 0.00 | 0.00 | 16 | 1006.2 |
| 20260507235818 | 74 | 180 | 3.5 | 10.4 | 0.00 | 0.00 | 0.00 | 16 | 1006.2 |
| 20260507234815 | 74 | 207 | 5.2 | 10.4 | 0.00 | 0.00 | 0.00 | 16 | 1006.2 |
| 20260507233828 | 74 | 111 | 4.3 | 10.4 | 0.00 | 0.00 | 0.00 | 15 | 1006.3 |
| 20260507232852 | 75 | 228 | 7.0 | 13.9 | 0.00 | 0.00 | 0.00 | 16 | 1006.3 |
| 20260507231840 | 74 | 150 | 6.1 | 13.9 | 0.00 | 0.00 | 0.00 | 16 | 1006.3 |
| 20260507225709 | 74 | 90 | 3.5 | 9.6 | 0.00 | 0.00 | 0.00 | 16 | 1006.4 |
| 20260507223619 | 73 | 211 | 6.1 | 13.0 | 0.00 | 0.00 | 0.00 | 16 | 1006.4 |
| 20260507221512 | 74 | 188 | 3.5 | 7.8 | 0.00 | 0.00 | 0.00 | 16 | 1006.7 |
| 20260507215346 | 73 | 218 | 7.0 | 15.6 | 0.00 | 0.00 | 0.00 | 16 | 1006.7 |
| 20260507214320 | 75 | 163 | 6.1 | 13.0 | 0.00 | 0.00 | 0.00 | 16 | 1007.0 |
| 20260507213248 | 76 | 192 | 5.2 | 12.2 | 0.00 | 0.00 | 0.00 | 15 | 1007.1 |
| 20260507212234 | 75 | 146 | 6.1 | 12.2 | 0.00 | 0.00 | 0.00 | 16 | 1007.5 |